User: anonymous   Login
Location: Bakov nad Jizerou
(50.4784°N, 14.9394°E)
Time: 21:41:36
(UTC+00:00)
Language:

IRIDIUM 33 DEB - Orbit

View from above orbital plane
View from above orbital plane
View from above satellite
View from above satellite

Ground track
Ground track

The orbit data is extracted from the following two-line orbital elements,

1 35624U 97051QW  22021.06211022  .00013376  00000-0  17353-2 0  9994
2 35624  86.3518 248.7530 0027247 242.2138 117.6320 14.80424253675096
Epoch (UTC): 21 January 2022 01:29:26
Eccentricity: 0.0027247
inclination: 86.3518°
perigee height: 609 km
apogee height: 647 km
right ascension of ascending node: 248.7530°
argument of perigee: 242.2138°
revolutions per day: 14.80424253
mean anomaly at epoch: 117.6320°
orbit number at epoch: 67509

The dashed part of the orbit path shows where the satellite is in the earth's shadow,  

DLR